Wind_Speed
16 15 14 12 10 10 13 14 13 12 14 14 24 26 31 35 29 36 37 34 35 31 24 28 27 26 21 16 14 14 14 14
16 16 15 12 11 13 14 15 15 17 18 21 27 20 30 31 32 37 38 32 34 30 26 23 20 20 15 18 20 17 15 13
14 17 17 15 14 14 15 15 16 18 20 20 26 32 29 28 29 30 30 32 34 29 30 26 28 23 21 22 21 17 14 14
17 16 19 17 16 16 17 16 18 18 21 22 26 28 27 25 27 31 28 32 33 28 27 27 26 21 23 24 21 18 16 14
17 17 19 20 18 18 18 19 20 19 20 24 30 29 31 29 33 33 30 33 37 33 30 28 31 24 23 23 18 17 14 13
17 19 21 21 20 21 21 21 20 21 24 27 29 26 29 26 27 28 28 30 33 35 34 33 31 27 21 20 12 15 18 15
16 20 22 22 21 21 22 24 23 22 26 26 29 31 27 29 27 27 27 31 34 30 31 29 29 23 20 18 20 24 23 20
15 19 18 23 24 23 23 25 26 26 26 28 27 32 35 32 35 31 29 28 29 36 34 34 33 30 21 21 23 23 22 23
16 19 17 24 26 26 25 26 26 28 29 30 30 29 32 35 37 35 33 33 35 40 42 39 34 33 25 24 24 23 21 22
16 18 21 25 26 28 27 27 27 29 29 30 30 31 31 33 37 39 37 34 34 37 43 39 40 42 38 29 25 27 22 25
14 16 19 26 27 27 27 26 28 29 30 31 32 33 33 31 33 39 40 41 39 39 39 39 38 40 35 35 33 26 26 26
11 14 20 26 26 28 28 28 29 30 31 31 32 34 34 32 32 35 38 38 39 40 38 38 38 37 37 37 36 31 30 29
5 10 14 23 26 28 30 30 31 30 31 32 32 31 33 36 36 34 34 35 37 40 37 37 38 38 38 38 36 34 33 32
3 9 13 17 25 28 30 31 32 32 32 32 32 32 34 35 36 35 35 35 35 36 37 37 39 39 38 38 37 35 34 34
4 7 11 15 24 27 28 30 31 31 32 32 33 34 35 34 34 35 36 36 36 36 38 38 38 37 38 38 37 37 37 37
13 7 9 13 19 25 28 29 30 31 32 34 35 34 34 34 34 36 36 38 39 39 37 38 39 38 39 39 38 39 38 35
13 15 13 12 15 22 25 28 30 31 32 34 33 32 33 34 34 35 35 37 38 37 39 39 39 39 40 42 41 35 35 33
13 13 15 11 14 20 23 28 27 30 32 33 34 33 34 35 35 35 36 36 35 38 37 37 37 38 39 40 42 41 31 29
15 13 12 14 12 17 20 24 27 29 31 32 33 33 34 33 34 36 36 35 36 36 36 35 35 35 37 40 41 40 40 33
Wind_Direction
207 194 196 196 192 188 191 177 174 179 178 166 159 144 149 152 145 147 152 158 166 179 182 173 159 157 157 158 165 173 181 180
194 196 193 189 188 186 178 170 182 180 178 159 159 135 152 152 156 160 164 174 178 181 171 168 158 161 168 176 176 180 182 187
181 192 193 191 189 186 183 178 173 178 174 168 164 157 151 158 163 165 170 177 181 172 173 174 169 173 179 181 182 171 177 186
181 197 194 187 191 188 183 173 174 176 177 159 158 156 150 160 164 167 185 180 178 195 182 176 174 177 185 189 180 179 176 188
187 193 195 193 191 188 180 175 179 177 174 153 157 163 167 175 174 182 189 189 185 190 183 179 181 183 188 190 181 185 188 190
195 190 193 193 186 186 180 176 182 179 178 165 168 168 175 178 182 187 189 188 192 193 191 186 189 192 195 193 193 207 209 211
197 183 188 187 185 186 183 182 182 184 183 178 176 177 177 170 176 184 187 188 189 187 192 195 197 200 208 195 203 217 213 218
195 183 187 184 187 186 190 188 187 185 186 188 190 181 186 182 183 185 185 187 192 197 197 197 206 213 217 210 219 226 228 228
203 192 189 188 187 187 194 192 193 186 187 194 196 190 185 193 192 193 193 194 196 197 201 207 210 219 219 226 224 223 224 233
205 194 189 193 190 192 194 193 195 195 190 193 198 199 194 195 199 199 202 203 204 205 209 208 213 225 222 229 230 226 233 240
196 197 190 196 193 192 195 201 202 198 200 196 198 199 200 200 198 202 207 212 212 211 211 213 216 219 223 231 236 232 233 232
203 202 194 198 194 192 196 199 204 202 201 203 203 202 204 205 206 203 205 206 207 211 213 215 217 218 225 229 234 234 234 235
196 208 200 196 199 197 198 200 204 207 204 203 206 205 205 205 209 208 206 207 207 208 211 214 216 220 224 225 228 229 232 239
184 188 199 201 204 204 204 203 206 206 206 205 206 208 208 207 208 210 208 208 209 211 214 215 216 219 221 225 227 231 234 240
258 202 203 206 210 210 210 208 208 209 209 208 208 209 210 212 209 208 209 209 213 215 216 220 221 223 226 229 232 236 241 243
296 285 221 211 213 215 215 216 209 211 213 213 212 210 210 212 213 214 213 213 214 216 219 224 226 228 230 232 233 236 240 239
302 310 285 230 216 219 217 218 215 210 215 217 215 212 211 212 213 213 215 218 219 219 221 222 225 229 231 232 234 236 236 233
321 313 312 286 250 219 222 219 217 214 217 220 218 215 213 213 213 214 216 216 216 219 221 222 224 227 230 231 234 230 231 227
310 313 307 321 297 270 235 226 214 215 219 220 218 216 218 214 213 215 216 214 216 218 220 222 226 227 226 228 230 231 233 236
Height
712 719 726 730 734 739 745 750 753 757 759 762 764 766 770 773 776 780 787 797 806 814 820 822 823 827 832 836 840 843 847 848
707 717 723 728 733 738 743 748 751 755 758 761 765 767 773 778 783 788 794 803 810 816 819 820 822 827 830 836 841 844 845 848
702 713 719 726 732 736 740 746 750 754 757 759 763 767 775 781 785 790 796 802 808 813 816 820 822 828 833 837 840 841 843 846
696 709 715 722 728 733 737 742 748 752 755 758 764 770 775 782 786 791 796 800 805 809 812 815 817 825 830 834 834 836 839 843
687 703 711 715 722 729 734 739 745 749 753 755 761 765 772 778 782 788 793 797 802 806 808 812 819 823 827 829 830 832 836 838
681 694 704 711 717 724 730 735 742 746 750 753 759 765 771 777 783 788 791 795 799 804 807 812 814 818 822 823 822 829 832 835
676 687 699 705 713 721 726 730 736 743 747 750 754 761 767 773 779 785 789 792 796 800 804 807 812 815 818 818 821 827 827 830
672 682 691 699 707 716 722 726 730 736 743 747 750 755 762 766 770 776 782 786 789 793 799 804 808 811 814 814 820 823 823 825
666 674 686 693 701 709 716 721 726 730 736 743 747 751 755 761 765 770 774 778 782 788 794 799 803 808 808 812 815 817 819 822
661 668 679 688 695 702 709 714 719 726 730 736 742 746 749 753 758 765 769 773 778 783 788 792 796 800 803 806 809 812 814 816
655 663 673 682 690 698 705 710 713 719 726 729 734 739 743 747 752 756 761 767 773 777 782 786 788 791 796 800 802 804 806 808
653 658 666 677 684 691 697 704 707 711 717 724 727 731 736 742 745 749 753 759 763 769 773 778 781 785 789 792 794 797 799 801
653 656 663 671 678 685 690 696 700 704 709 714 720 725 729 733 736 741 747 751 756 761 765 769 772 776 780 782 785 788 790 792
652 656 660 666 673 678 683 688 693 697 702 707 712 716 720 723 729 735 739 744 749 754 758 760 762 766 770 773 775 778 780 781
647 652 656 661 665 671 676 681 687 692 695 699 703 707 711 717 722 726 732 737 742 746 749 752 756 759 763 765 768 770 771 772
648 647 649 654 659 664 668 674 680 685 689 691 693 699 705 710 715 719 723 727 730 734 739 743 747 750 752 755 757 759 761 763
650 649 646 646 651 656 661 666 670 677 680 682 688 692 697 701 705 710 715 718 721 725 727 730 734 737 739 743 747 749 752 755
654 653 648 644 644 649 654 657 663 667 672 677 680 684 687 691 696 701 703 707 713 715 718 721 723 726 729 733 737 742 744 746
660 657 654 648 648 647 646 650 654 659 663 666 670 674 677 682 686 689 693 697 700 704 708 711 714 716 718 722 727 732 735 738